TimeMDT,TemperatureF,Dew PointF,Humidity,Sea Level PressureIn,VisibilityMPH,Wind Direction,Wind SpeedMPH,Gust SpeedMPH,PrecipitationIn,Events,Conditions,WindDirDegrees,DateUTC
12:00 AM,35.6,26.6,70,30.23,10.0,SSW,9.2,-,N/A,,Mostly Cloudy,200,2012-10-05 06:00:00
12:19 AM,35.6,28.4,75,30.18,10.0,South,20.7,25.3,N/A,Rain,Light Rain,170,2012-10-05 06:19:00
12:48 AM,35.6,28.4,75,30.17,10.0,South,12.7,20.7,N/A,,Mostly Cloudy,180,2012-10-05 06:48:00
1:03 AM,35.6,28.4,75,30.17,10.0,South,18.4,21.9,N/A,,Mostly Cloudy,170,2012-10-05 07:03:00
1:22 AM,33.8,28.4,81,30.15,10.0,SSE,15.0,-,N/A,,Mostly Cloudy,160,2012-10-05 07:22:00
1:46 AM,33.8,28.4,81,30.13,10.0,South,20.7,26.5,N/A,,Scattered Clouds,170,2012-10-05 07:46:00
2:01 AM,33.8,26.6,75,30.13,10.0,South,23.0,28.8,N/A,,Clear,170,2012-10-05 08:01:00
2:21 AM,33.8,28.4,81,30.13,10.0,SSE,12.7,-,N/A,,Scattered Clouds,160,2012-10-05 08:21:00
2:42 AM,33.8,26.6,75,30.13,10.0,South,20.7,-,N/A,,Scattered Clouds,180,2012-10-05 08:42:00
3:02 AM,33.8,26.6,75,30.10,10.0,South,16.1,24.2,N/A,,Scattered Clouds,170,2012-10-05 09:02:00
3:25 AM,32.0,28.4,87,30.10,10.0,South,18.4,26.5,N/A,,Clear,190,2012-10-05 09:25:00
3:40 AM,32.0,26.6,80,30.13,10.0,SW,8.1,-,N/A,,Clear,220,2012-10-05 09:40:00
4:00 AM,32.0,26.6,80,30.17,10.0,NNW,10.4,-,N/A,,Mostly Cloudy,330,2012-10-05 10:00:00
4:27 AM,32.0,26.6,80,30.17,10.0,North,3.5,-,N/A,,Overcast,360,2012-10-05 10:27:00
4:42 AM,32.0,26.6,80,30.17,10.0,Calm,Calm,-,N/A,,Overcast,0,2012-10-05 10:42:00
5:08 AM,32.0,26.6,80,30.17,10.0,NNW,3.5,-,N/A,,Overcast,330,2012-10-05 11:08:00
5:31 AM,30.2,26.6,86,30.17,7.0,NNW,4.6,-,N/A,Snow,Light Snow,330,2012-10-05 11:31:00
5:40 AM,30.2,26.6,86,30.18,5.0,NW,6.9,-,N/A,Snow,Light Snow,320,2012-10-05 11:40:00
6:09 AM,28.4,26.6,93,30.18,10.0,NNW,6.9,-,N/A,,Overcast,340,2012-10-05 12:09:00
6:30 AM,30.2,28.4,93,30.19,10.0,West,4.6,-,N/A,,Overcast,280,2012-10-05 12:30:00
6:50 AM,30.2,28.4,93,30.16,7.0,South,9.2,-,N/A,Snow,Light Snow,170,2012-10-05 12:50:00
7:08 AM,30.2,28.4,93,30.15,5.0,South,5.8,-,N/A,,Overcast,170,2012-10-05 13:08:00
7:27 AM,30.2,28.4,93,30.15,10.0,SSE,5.8,-,N/A,,Mostly Cloudy,160,2012-10-05 13:27:00
7:51 AM,30.2,28.4,93,30.15,10.0,SSE,5.8,-,N/A,,Clear,160,2012-10-05 13:51:00
8:11 AM,32.0,30.2,93,30.14,10.0,South,15.0,-,N/A,,Scattered Clouds,170,2012-10-05 14:11:00
8:20 AM,32.0,30.2,93,30.15,10.0,SSE,11.5,-,N/A,,Scattered Clouds,150,2012-10-05 14:20:00
8:51 AM,32.0,30.2,93,30.16,10.0,SSE,16.1,-,N/A,,Mostly Cloudy,160,2012-10-05 14:51:00
9:10 AM,32.0,30.2,93,30.16,10.0,South,18.4,23.0,N/A,,Overcast,170,2012-10-05 15:10:00
9:31 AM,33.8,30.2,87,30.17,10.0,South,16.1,-,N/A,,Overcast,170,2012-10-05 15:31:00
9:51 AM,33.8,30.2,87,30.18,10.0,SSE,12.7,-,N/A,,Mostly Cloudy,160,2012-10-05 15:51:00
10:31 AM,35.6,30.2,81,30.18,10.0,South,15.0,18.4,N/A,,Overcast,170,2012-10-05 16:31:00
10:44 AM,35.6,30.2,81,30.17,10.0,SSE,13.8,-,N/A,,Mostly Cloudy,160,2012-10-05 16:44:00
11:11 AM,37.4,32.0,81,30.18,10.0,South,10.4,17.3,N/A,,Mostly Cloudy,190,2012-10-05 17:11:00
11:30 AM,39.2,32.0,75,30.19,10.0,South,10.4,-,N/A,,Mostly Cloudy,190,2012-10-05 17:30:00
11:51 AM,37.4,32.0,81,30.19,10.0,SSW,5.8,-,N/A,,Overcast,200,2012-10-05 17:51:00
12:24 PM,37.4,30.2,75,30.19,10.0,SW,3.5,-,N/A,,Overcast,230,2012-10-05 18:24:00
12:51 PM,37.4,32.0,81,30.18,10.0,Calm,Calm,-,N/A,,Overcast,0,2012-10-05 18:51:00
1:11 PM,37.4,32.0,81,30.18,10.0,West,3.5,-,N/A,,Overcast,280,2012-10-05 19:11:00
1:26 PM,37.4,32.0,81,30.18,10.0,NNW,11.5,16.1,N/A,,Overcast,340,2012-10-05 19:26:00
1:41 PM,33.8,32.0,93,30.18,10.0,North,15.0,18.4,N/A,,Overcast,360,2012-10-05 19:41:00
2:01 PM,33.8,32.0,93,30.19,10.0,North,11.5,-,N/A,,Overcast,360,2012-10-05 20:01:00
2:20 PM,33.8,30.2,87,30.19,10.0,North,12.7,17.3,N/A,,Overcast,350,2012-10-05 20:20:00
2:45 PM,32.0,30.2,93,30.20,10.0,NNW,12.7,-,N/A,,Overcast,330,2012-10-05 20:45:00
3:11 PM,32.0,30.2,93,30.21,10.0,NNW,10.4,-,N/A,,Overcast,340,2012-10-05 21:11:00
3:21 PM,32.0,30.2,93,30.20,10.0,NNW,9.2,-,N/A,,Overcast,340,2012-10-05 21:21:00
3:49 PM,32.0,30.2,93,30.21,10.0,NNW,9.2,-,N/A,,Overcast,330,2012-10-05 21:49:00
4:09 PM,32.0,30.2,93,30.21,10.0,NNW,9.2,-,N/A,,Overcast,340,2012-10-05 22:09:00
4:23 PM,32.0,30.2,93,30.21,7.0,North,11.5,-,N/A,,Overcast,350,2012-10-05 22:23:00
4:42 PM,32.0,30.2,93,30.23,3.0,NNW,10.4,-,N/A,,Overcast,330,2012-10-05 22:42:00
5:02 PM,30.2,30.2,100,30.23,2.5,NNW,10.4,-,N/A,,Overcast,330,2012-10-05 23:02:00
5:31 PM,30.2,30.2,100,30.23,2.0,NNW,9.2,-,N/A,,Overcast,330,2012-10-05 23:31:00
5:46 PM,30.2,30.2,100,30.23,2.5,NW,9.2,-,N/A,,Overcast,320,2012-10-05 23:46:00
6:00 PM,30.2,30.2,100,30.23,2.0,NNW,6.9,-,N/A,,Overcast,330,2012-10-06 00:00:00
6:21 PM,30.2,30.2,100,30.23,3.0,NW,5.8,-,N/A,,Overcast,310,2012-10-06 00:21:00
6:47 PM,30.2,30.2,100,30.24,3.0,NW,4.6,-,N/A,,Overcast,320,2012-10-06 00:47:00
7:01 PM,30.2,30.2,100,30.24,3.0,WNW,4.6,-,N/A,,Overcast,290,2012-10-06 01:01:00
7:21 PM,30.2,30.2,100,30.24,2.5,North,3.5,-,N/A,,Overcast,350,2012-10-06 01:21:00
7:42 PM,30.2,30.2,100,30.24,3.0,NNW,4.6,-,N/A,,Overcast,340,2012-10-06 01:42:00
8:01 PM,30.2,30.2,100,30.25,3.0,NNW,4.6,-,N/A,,Overcast,330,2012-10-06 02:01:00
8:21 PM,30.2,30.2,100,30.25,2.5,NNW,3.5,-,N/A,,Overcast,330,2012-10-06 02:21:00
8:41 PM,30.2,30.2,100,30.25,2.5,North,3.5,-,N/A,,Overcast,350,2012-10-06 02:41:00
9:31 PM,30.2,30.2,100,30.25,2.5,Calm,Calm,-,N/A,,Overcast,0,2012-10-06 03:31:00
9:45 PM,30.2,30.2,100,30.24,2.5,Calm,Calm,-,N/A,,Overcast,0,2012-10-06 03:45:00
10:01 PM,30.2,30.2,100,30.24,4.0,NE,4.6,-,N/A,,Overcast,40,2012-10-06 04:01:00
10:30 PM,30.2,30.2,100,30.23,2.5,ENE,4.6,-,N/A,,Overcast,60,2012-10-06 04:30:00
10:51 PM,30.2,30.2,100,30.23,2.5,ENE,4.6,-,N/A,,Overcast,70,2012-10-06 04:51:00
11:08 PM,30.2,30.2,100,30.22,2.5,East,6.9,-,N/A,,Overcast,90,2012-10-06 05:08:00
11:25 PM,30.2,30.2,100,30.21,3.0,ENE,4.6,-,N/A,,Overcast,70,2012-10-06 05:25:00
11:51 PM,30.2,30.2,100,30.21,3.0,ENE,4.6,-,N/A,,Overcast,70,2012-10-06 05:51:00